TimeCST,TemperatureF,Dew PointF,Humidity,Sea Level PressureIn,VisibilityMPH,Wind Direction,Wind SpeedMPH,Gust SpeedMPH,PrecipitationIn,Events,Conditions,WindDirDegrees,DateUTC
12:35 AM,20.3,16.3,85,30.09,10.0,East,15.0,21.9,N/A,,Overcast,80,2013-02-22 06:35:00
12:36 AM,19.4,15.8,86,30.09,10.0,East,15.0,21.9,N/A,,Overcast,80,2013-02-22 06:36:00
12:55 AM,20.3,16.3,85,30.08,10.0,East,15.0,20.7,N/A,,Overcast,80,2013-02-22 06:55:00
1:15 AM,20.3,16.2,84,30.06,10.0,ENE,12.7,20.7,N/A,,Overcast,70,2013-02-22 07:15:00
1:35 AM,20.5,16.0,83,30.06,10.0,ENE,12.7,-,N/A,,Overcast,70,2013-02-22 07:35:00
1:55 AM,20.3,16.0,83,30.04,10.0,ENE,16.1,21.9,N/A,,Overcast,70,2013-02-22 07:55:00
2:15 AM,20.1,16.5,86,30.03,1.5,ENE,13.8,23.0,N/A,Snow,Light Snow,70,2013-02-22 08:15:00
2:35 AM,19.4,17.2,91,30.01,0.8,ENE,13.8,19.6,N/A,Snow,Snow,70,2013-02-22 08:35:00
2:55 AM,19.4,17.4,92,29.99,0.8,ENE,15.0,20.7,N/A,Snow,Snow,60,2013-02-22 08:55:00
3:15 AM,19.4,17.2,91,29.97,0.8,ENE,15.0,20.7,N/A,Snow,Snow,60,2013-02-22 09:15:00
3:35 AM,19.4,17.4,92,29.94,0.8,ENE,15.0,23.0,N/A,Snow,Snow,60,2013-02-22 09:35:00
3:55 AM,19.4,17.1,91,29.91,1.8,ENE,16.1,27.6,N/A,Snow,Light Snow,60,2013-02-22 09:55:00
4:15 AM,19.8,17.2,90,29.93,1.2,East,15.0,24.2,N/A,Snow,Light Snow,80,2013-02-22 10:15:00
4:35 AM,19.9,17.1,89,29.93,3.0,East,13.8,21.9,N/A,Snow,Light Snow,80,2013-02-22 10:35:00
4:55 AM,19.9,17.6,91,29.93,1.0,East,12.7,21.9,N/A,Snow,Snow,90,2013-02-22 10:55:00
5:15 AM,19.9,17.6,91,29.92,1.0,East,13.8,-,N/A,Snow,Snow,80,2013-02-22 11:15:00
5:35 AM,19.9,17.6,91,29.91,1.0,ENE,13.8,19.6,N/A,Snow,Snow,70,2013-02-22 11:35:00
5:55 AM,19.9,17.4,90,29.89,1.5,East,12.7,-,N/A,Snow,Light Snow,80,2013-02-22 11:55:00
6:15 AM,20.1,17.6,90,29.89,1.5,East,13.8,-,N/A,Snow,Light Snow,80,2013-02-22 12:15:00
6:35 AM,19.9,17.6,91,29.89,1.8,East,12.7,-,N/A,Snow,Light Snow,80,2013-02-22 12:35:00
6:55 AM,20.1,17.4,89,29.89,2.0,ENE,12.7,17.3,N/A,Snow,Light Snow,70,2013-02-22 12:55:00
7:15 AM,20.3,17.4,89,29.89,5.0,ENE,9.2,17.3,N/A,Snow,Light Snow,70,2013-02-22 13:15:00
7:35 AM,20.7,17.4,87,29.89,7.0,ENE,9.2,19.6,N/A,Snow,Light Snow,70,2013-02-22 13:35:00
7:55 AM,20.8,17.6,87,29.88,7.0,ENE,9.2,-,N/A,Snow,Light Snow,60,2013-02-22 13:55:00
8:15 AM,21.0,18.0,88,29.87,10.0,ENE,11.5,-,N/A,Snow,Light Snow,60,2013-02-22 14:15:00
8:35 AM,21.2,18.3,89,29.87,5.0,ENE,9.2,16.1,N/A,Snow,Light Snow,70,2013-02-22 14:35:00
8:55 AM,21.7,18.9,89,29.86,4.0,ENE,9.2,-,N/A,Snow,Light Snow,70,2013-02-22 14:55:00
9:15 AM,22.1,19.4,89,29.86,3.0,ENE,9.2,-,N/A,Snow,Light Snow,70,2013-02-22 15:15:00
9:35 AM,22.6,19.8,89,29.85,5.0,ENE,9.2,-,N/A,Snow,Light Snow,60,2013-02-22 15:35:00
9:55 AM,23.0,20.1,89,29.85,4.0,ENE,9.2,-,N/A,Snow,Light Snow,70,2013-02-22 15:55:00
10:15 AM,23.4,20.3,88,29.85,4.0,ENE,8.1,-,N/A,Snow,Light Snow,70,2013-02-22 16:15:00
10:55 AM,23.9,21.2,89,29.84,3.0,ENE,8.1,-,N/A,Snow,Light Snow,70,2013-02-22 16:55:00
11:15 AM,24.4,21.6,89,29.84,2.5,ENE,5.8,-,N/A,Snow,Light Snow,70,2013-02-22 17:15:00
11:35 AM,24.8,21.7,88,29.83,1.5,ENE,8.1,-,N/A,Snow,Light Snow,70,2013-02-22 17:35:00
11:55 AM,25.5,22.1,87,29.83,1.5,East,6.9,-,N/A,Snow,Light Snow,80,2013-02-22 17:55:00
12:15 PM,25.5,22.3,88,29.82,1.5,ENE,9.2,-,0.01,Snow,Light Snow,70,2013-02-22 18:15:00
12:35 PM,25.7,22.5,88,29.81,2.0,East,8.1,-,0.01,Snow,Light Snow,80,2013-02-22 18:35:00
12:55 PM,26.1,22.6,87,29.80,2.0,ENE,6.9,-,0.01,Snow,Light Snow,70,2013-02-22 18:55:00
1:15 PM,26.4,22.5,85,29.79,3.0,East,8.1,-,N/A,Snow,Light Snow,80,2013-02-22 19:15:00
1:35 PM,26.8,22.6,84,29.78,5.0,East,6.9,-,N/A,Snow,Light Snow,80,2013-02-22 19:35:00
1:55 PM,27.0,22.8,84,29.78,3.0,East,8.1,-,N/A,Snow,Light Snow,80,2013-02-22 19:55:00
2:15 PM,26.6,22.5,84,29.78,4.0,East,5.8,-,N/A,Snow,Light Snow,90,2013-02-22 20:15:00
2:35 PM,26.6,22.8,86,29.78,3.0,East,4.6,-,N/A,Snow,Light Snow,90,2013-02-22 20:35:00
2:55 PM,26.4,23.0,87,29.78,3.0,East,4.6,-,N/A,Snow,Light Snow,90,2013-02-22 20:55:00
3:15 PM,26.4,23.4,88,29.78,2.0,East,4.6,-,N/A,,Overcast,90,2013-02-22 21:15:00
3:35 PM,26.1,23.4,90,29.78,1.8,East,5.8,-,N/A,,Overcast,90,2013-02-22 21:35:00
3:55 PM,26.1,23.7,91,29.78,2.0,East,3.5,-,N/A,Snow,Light Snow,100,2013-02-22 21:55:00
4:15 PM,26.1,23.9,92,29.78,1.5,Calm,Calm,-,N/A,,Overcast,0,2013-02-22 22:15:00
4:35 PM,25.7,24.3,94,29.78,1.0,Calm,Calm,-,0.01,,Overcast,0,2013-02-22 22:35:00
4:55 PM,25.7,24.3,94,29.78,1.8,Calm,Calm,-,0.01,,Overcast,0,2013-02-22 22:55:00
5:15 PM,25.3,24.1,95,29.79,1.8,Calm,Calm,-,N/A,,Overcast,0,2013-02-22 23:15:00
5:35 PM,25.5,24.4,96,29.79,1.5,Calm,Calm,-,N/A,,Overcast,0,2013-02-22 23:35:00
5:55 PM,25.3,23.9,94,29.79,5.0,Calm,Calm,-,N/A,,Overcast,0,2013-02-22 23:55:00
6:15 PM,24.8,23.7,96,29.79,4.0,Calm,Calm,-,N/A,,Overcast,0,2013-02-23 00:15:00
6:35 PM,24.8,23.9,96,29.79,5.0,Calm,Calm,-,N/A,,Overcast,0,2013-02-23 00:35:00
6:55 PM,24.8,23.9,96,29.80,2.0,Calm,Calm,-,N/A,,Overcast,0,2013-02-23 00:55:00
7:15 PM,24.1,23.4,97,29.80,1.5,Calm,Calm,-,0.01,,Overcast,0,2013-02-23 01:15:00
7:35 PM,25.0,24.1,96,29.79,1.2,Calm,Calm,-,0.01,,Overcast,0,2013-02-23 01:35:00
7:55 PM,24.8,24.1,97,29.79,1.5,Calm,Calm,-,0.01,,Overcast,0,2013-02-23 01:55:00
8:15 PM,23.9,23.2,97,29.79,1.8,Calm,Calm,-,N/A,Snow,Light Snow,0,2013-02-23 02:15:00
8:35 PM,23.4,23.0,99,29.79,2.0,Calm,Calm,-,N/A,,Overcast,0,2013-02-23 02:35:00
8:55 PM,23.9,23.5,99,29.79,2.5,Calm,Calm,-,N/A,,Overcast,0,2013-02-23 02:55:00
9:15 PM,23.9,23.5,99,29.79,3.0,Calm,Calm,-,N/A,,Overcast,0,2013-02-23 03:15:00
9:35 PM,24.4,23.9,98,29.79,2.5,Calm,Calm,-,0.01,,Overcast,0,2013-02-23 03:35:00
9:55 PM,24.6,23.9,97,29.78,3.0,Calm,Calm,-,0.01,,Overcast,0,2013-02-23 03:55:00
10:15 PM,24.4,23.4,96,29.78,4.0,Calm,Calm,-,N/A,,Overcast,0,2013-02-23 04:15:00
10:35 PM,24.3,23.0,95,29.78,3.0,WSW,5.8,-,N/A,Snow,Light Snow,240,2013-02-23 04:35:00
10:55 PM,23.9,22.8,96,29.78,4.0,WSW,5.8,-,N/A,Snow,Light Snow,240,2013-02-23 04:55:00
11:15 PM,23.7,22.1,94,29.78,5.0,West,5.8,-,N/A,Snow,Light Snow,260,2013-02-23 05:15:00
11:35 PM,23.4,21.7,94,29.77,4.0,WSW,4.6,-,N/A,Snow,Light Snow,240,2013-02-23 05:35:00
11:55 PM,23.2,21.6,94,29.77,7.0,WSW,5.8,-,N/A,Snow,Light Snow,240,2013-02-23 05:55:00